Вернуться в каталог

ARIANE 5 R/B

АктивенSSO
NORAD 36125·ROCKET BODY·🇫🇷 France

Запущен Dec 17, 2009 с Guiana Space Centre

Loading…

Ближайшие Пролёты (ближайшие 24 часа)

TLE

УстаревшееSource: Mike McCants

Эпоха: Aug 31, 2026, 22:08 UTC

1 36125U 09073B   26243.92283215 0.00000400  00000-0  52813-4 0    05
2 36125  98.0198 339.1810 0023072 295.6535  64.3464 14.79920846    05

Отслеживайте ARIANE 5 R/B в реальном времени с AllMySat

Download on the App Store